Dewpoint
69 73 74 73 73 73 73 74 73 73 73 72 72 73 73 73 72 72 72 72 72 72 72 72 71 71 71 72 71 71 71 71 71 71 69 68 68 71 71 71 71 72 72
71 73 74 73 73 73 73 73 74 73 73 73 72 73 72 73 73 71 70 72 72 72 72 72 72 72 72 71 72 71 71 72 71 71 70 71 71 71 70 71 71 71 72
71 73 73 74 73 73 73 73 73 73 73 73 72 72 72 72 73 72 70 72 72 72 72 72 72 72 72 71 70 71 71 70 71 69 70 71 71 70 70 70 71 71 71
71 73 73 74 73 73 73 72 73 74 73 73 72 72 72 72 73 72 69 72 72 72 72 71 72 71 70 70 70 71 70 69 70 70 69 70 70 70 69 71 71 71 71
71 73 73 73 73 73 73 73 73 72 72 73 72 72 72 72 70 69 70 72 72 73 71 71 70 72 72 72 71 71 71 71 70 70 69 69 69 71 69 70 71 71 71
70 72 73 73 72 73 73 72 72 72 73 72 72 73 71 71 72 72 72 72 72 72 72 72 70 69 71 71 70 70 72 71 68 67 70 70 69 70 70 70 70 71 71
70 73 73 73 73 73 72 73 72 73 72 72 72 73 71 70 72 72 72 73 72 72 71 72 71 70 70 71 71 70 71 71 69 68 70 69 69 70 70 70 70 71 70
70 73 73 73 73 73 72 72 72 73 72 72 72 73 73 71 73 72 73 72 72 71 71 71 71 71 71 70 70 70 70 69 69 69 69 68 69 69 70 70 69 69 70
71 73 72 73 73 73 72 72 72 72 72 73 73 73 73 71 72 72 72 72 72 71 72 72 71 71 71 70 70 70 71 69 68 68 67 69 70 68 69 68 69 70 69
70 71 72 73 73 73 72 72 73 71 72 72 73 73 73 72 72 72 73 72 71 71 70 70 71 71 71 71 71 70 69 71 67 67 67 69 70 68 68 68 69 70 69
68 71 72 72 72 72 73 73 72 71 72 73 73 72 73 72 72 73 73 73 72 71 71 71 71 70 71 71 71 71 70 70 70 67 66 68 69 69 67 68 67 69 69
68 70 72 72 71 71 72 73 72 71 73 73 72 72 73 72 72 72 73 73 72 72 72 71 71 71 71 71 71 71 70 69 69 70 68 69 68 68 67 67 68 68 69
68 69 69 70 70 70 71 72 72 70 71 72 72 72 73 72 72 73 72 72 72 72 72 71 72 72 71 71 71 70 70 70 69 69 70 70 70 69 68 67 68 67 67
66 67 68 70 70 70 71 72 72 70 70 71 72 71 72 71 71 70 71 72 71 71 71 71 70 71 71 71 71 71 71 70 70 69 70 71 71 70 70 69 68 69 68
64 66 68 70 70 69 70 71 71 69 68 70 71 71 69 70 71 70 70 71 71 71 71 71 71 71 71 71 71 71 66 69 71 71 71 71 72 71 71 70 69 69 68
64 65 68 69 69 69 69 70 70 70 68 68 70 70 69 70 70 69 69 70 70 71 71 71 70 70 70 71 71 71 65 70 70 69 71 71 72 73 72 72 71 70 68
64 65 67 68 68 69 68 68 68 69 69 67 69 69 68 69 69 70 71 70 70 71 71 71 70 71 71 72 71 71 69 68 69 68 70 71 71 73 73 72 72 72 70
63 64 66 67 67 67 67 67 68 69 68 67 68 68 68 70 70 70 70 70 71 70 71 71 70 69 71 67 63 66 66 66 67 68 70 71 72 72 73 73 72 73 72
62 65 65 65 67 66 65 66 67 68 67 67 68 68 70 69 70 70 70 69 70 68 70 70 70 71 69 67 63 63 64 65 66 69 69 69 70 72 72 72 72 72 73
63 64 64 65 67 66 65 66 66 68 68 69 68 68 70 70 70 70 70 70 70 69 69 70 70 70 70 69 68 66 64 64 65 65 65 67 67 67 67 71 72 72 72
63 64 65 64 65 66 65 64 64 64 68 69 69 69 69 70 71 71 71 70 71 70 70 70 70 70 69 71 66 65 65 63 62 63 65 67 67 67 68 68 71 72 71
60 63 65 65 65 66 65 64 63 65 68 68 70 71 69 70 71 73 72 71 71 71 71 71 70 69 69 71 68 66 63 62 66 67 67 67 68 68 68 69 72 72 72
61 62 65 65 66 66 65 65 66 67 68 68 68 70 70 70 71 71 71 71 71 71 70 70 69 70 68 69 70 66 62 60 65 66 67 67 67 68 67 71 72 72 72
61 62 63 66 66 66 66 64 65 66 65 67 67 70 70 70 70 70 71 72 71 71 71 71 70 70 70 69 70 71 68 67 64 62 66 66 65 65 67 70 71 71 71
62 62 62 66 65 66 66 65 65 66 67 67 67 68 70 70 70 72 72 72 71 70 71 71 72 72 72 71 71 70 69 68 68 66 64 64 65 64 67 70 71 71 71
61 62 61 66 65 67 67 67 66 66 66 66 67 68 68 70 70 71 72 72 71 71 71 71 71 73 72 72 72 71 69 68 67 67 66 64 64 62 67 67 71 71 71
Wind_Speed
16 16 17 16 15 13 12 12 15 12 12 13 13 13 15 16 16 15 15 15 13 14 14 12 9 9 10 11 12 12 13 14 14 14 16 15 14 13 12 10 12 14 17
21 18 19 18 17 15 13 13 16 14 12 12 11 11 13 13 13 13 13 13 12 12 14 12 11 11 13 13 12 12 13 14 15 15 16 16 14 12 12 9 10 13 17
22 19 18 17 17 15 14 13 15 15 13 12 11 11 12 12 12 11 12 11 11 10 11 12 11 11 11 11 11 11 11 11 11 13 12 9 10 12 15 13 12 13 15
22 18 17 17 16 16 15 14 14 13 14 11 12 11 11 11 11 11 11 10 11 10 10 10 10 11 10 10 10 10 11 12 12 10 6 7 7 15 16 16 13 13 13
20 16 17 18 17 17 16 14 14 13 13 11 11 11 12 12 11 12 11 9 10 8 10 10 9 10 9 9 9 10 11 12 12 11 9 11 12 14 16 15 16 14 13
18 17 19 19 18 17 16 15 14 13 13 11 12 11 12 12 12 12 10 9 10 9 8 9 9 9 8 8 7 8 9 7 5 6 6 12 11 14 15 15 15 14 14
19 16 17 18 18 17 16 14 14 13 13 12 12 12 13 11 11 12 10 9 9 9 8 7 9 9 8 6 6 6 7 6 7 7 9 9 10 15 13 13 14 15 16
23 18 17 18 17 17 16 15 14 12 13 13 12 12 11 11 10 11 9 8 7 8 8 7 7 7 7 6 6 6 6 8 6 9 8 8 10 13 15 17 13 15 15
21 19 17 16 16 17 16 15 15 13 13 13 12 11 11 11 11 10 9 8 7 6 6 6 6 5 5 6 6 6 7 9 10 10 9 8 9 12 13 17 17 14 13
20 17 15 15 15 14 13 15 15 14 13 13 12 11 11 10 9 9 8 8 7 6 5 4 5 6 7 8 9 9 8 9 9 8 8 8 9 13 14 14 15 15 13
17 16 16 16 17 15 13 13 15 15 12 12 11 10 11 8 9 9 8 7 7 6 7 7 6 7 8 10 11 10 11 7 11 11 10 10 14 14 14 15 16 15 13
21 19 16 15 16 17 12 13 13 12 10 10 9 9 8 8 7 7 8 9 7 8 6 5 7 7 10 9 8 10 9 9 10 12 11 14 18 18 16 12 12 14 14
26 20 19 17 16 16 14 13 12 11 11 10 10 10 9 8 7 7 7 6 6 8 4 4 7 6 7 10 10 10 13 11 9 8 13 18 18 19 18 16 15 16 15
23 23 21 18 18 16 12 13 13 13 13 13 13 13 12 10 8 9 8 8 7 8 6 7 9 7 10 10 8 9 10 11 13 12 13 19 21 21 20 19 18 15 18
25 23 23 20 20 16 15 13 12 13 13 13 11 11 11 12 10 10 9 11 10 9 8 9 10 9 10 5 7 11 12 12 14 12 13 20 23 25 22 19 20 20 22
26 26 24 22 19 18 17 15 14 13 13 13 12 12 14 11 10 12 9 8 9 12 10 8 9 7 10 5 10 17 18 7 7 5 8 16 22 25 24 21 22 22 25
26 27 25 23 22 21 19 18 14 14 13 14 14 15 17 13 13 10 5 4 5 7 10 7 6 9 11 7 10 12 9 9 7 9 9 7 11 21 25 25 24 22 22
25 25 24 22 22 20 19 18 14 14 15 15 13 14 14 13 13 11 7 3 1 3 6 6 6 6 4 11 3 5 6 9 8 10 9 3 7 9 16 26 24 18 19
27 26 26 24 22 22 20 16 10 5 14 15 14 15 15 11 8 7 5 2 2 3 5 5 4 2 4 5 4 3 5 3 3 6 4 6 7 8 12 16 19 21 26
26 27 26 23 22 21 16 10 7 6 5 13 15 16 14 12 10 8 6 4 3 1 5 7 4 3 3 3 4 6 8 7 7 8 10 10 9 11 15 13 11 10 25
24 25 24 22 21 20 14 12 9 7 2 10 13 14 16 14 12 10 6 6 6 6 7 7 3 4 5 2 2 4 6 8 12 14 11 13 14 14 14 13 8 7 2
26 24 23 24 23 20 18 14 7 7 6 11 15 16 18 16 14 12 11 7 6 8 10 7 4 2 1 0 1 2 4 5 5 7 8 10 13 15 14 7 3 3 4
27 26 25 25 25 21 18 15 7 6 4 7 9 12 16 17 13 14 13 12 8 10 8 7 6 5 2 2 2 1 2 2 5 6 7 9 9 10 7 2 4 3 4
29 27 26 25 25 22 21 19 15 13 13 12 13 13 15 15 16 15 14 14 12 8 5 6 7 7 4 2 1 1 1 1 2 5 5 7 11 5 4 2 3 5 6
29 29 27 25 27 24 23 22 20 16 12 11 13 18 17 16 17 16 17 15 13 10 10 9 8 7 7 3 3 2 2 1 2 1 4 11 10 7 3 5 6 6 8
29 29 27 26 26 25 25 23 22 22 20 15 8 13 15 16 17 18 16 16 17 16 13 12 8 9 8 5 3 4 4 2 2 3 3 5 7 6 6 5 4 5 8
Wind_Direction
163 162 156 147 141 140 133 129 137 127 120 107 102 104 102 106 107 112 113 119 120 118 124 126 124 134 130 118 116 117 120 123 125 127 129 135 134 139 139 137 138 129 128
149 158 154 150 145 143 133 128 137 137 133 120 112 111 112 112 116 113 113 118 119 119 123 122 113 114 121 122 123 126 129 130 134 135 136 135 129 129 137 128 122 131 129
145 152 151 149 146 142 134 133 140 140 138 130 124 124 123 122 125 122 117 120 125 124 121 123 119 119 128 126 134 130 123 121 122 124 127 132 128 120 141 138 134 130 135
143 147 147 147 145 141 141 141 136 129 134 134 130 130 130 131 134 123 127 129 127 128 129 124 130 126 131 137 135 127 126 127 127 144 129 153 145 131 138 140 139 137 134
140 140 148 148 147 143 147 142 137 131 130 137 138 139 136 132 130 130 131 133 134 142 137 135 129 130 137 134 135 131 132 147 150 152 168 175 159 150 143 148 144 142 139
138 143 150 152 150 148 143 140 137 136 134 138 147 145 130 135 139 132 129 129 139 142 130 127 130 137 137 136 137 132 127 143 145 121 109 146 145 151 147 150 150 149 147
145 151 153 156 152 149 146 143 140 144 136 142 146 144 138 144 137 133 138 140 141 134 136 146 141 142 147 149 149 134 137 140 131 142 112 117 157 153 148 151 154 156 156
152 155 160 158 156 152 149 145 144 142 144 149 146 149 144 146 145 143 142 147 145 146 148 146 144 154 160 169 172 164 177 163 152 132 128 138 150 161 156 149 163 163 160
150 154 160 159 158 156 152 151 150 154 155 155 156 155 145 154 148 150 153 160 161 156 155 159 159 172 181 195 202 208 194 197 170 173 167 167 170 170 165 163 172 167 167
150 159 165 162 156 159 156 159 157 159 164 160 161 155 154 158 163 166 164 172 173 174 178 188 197 204 216 220 222 221 217 207 187 184 183 181 184 183 178 173 174 167 174
157 167 172 166 159 161 161 168 164 166 168 170 166 165 169 170 176 181 178 193 193 197 202 206 220 239 245 244 241 237 237 209 197 201 195 205 196 201 201 199 181 165 175
168 179 180 169 165 163 167 171 173 173 172 169 176 177 178 193 199 198 201 202 220 229 231 235 235 239 258 260 270 267 250 239 211 210 209 207 210 213 215 210 195 180 179
179 176 181 174 170 168 170 169 177 178 180 188 190 195 197 209 221 229 228 213 207 227 225 255 277 273 257 267 270 276 278 270 273 252 215 217 219 219 221 211 211 201 193
178 179 176 176 172 177 164 173 184 183 190 199 203 199 197 213 216 232 224 226 216 231 225 230 269 270 273 266 318 313 295 287 268 259 254 230 223 227 221 221 214 207 207
176 177 176 175 175 176 172 178 185 191 195 207 208 207 200 211 220 226 217 216 215 234 252 228 257 268 278 45 43 256 252 254 249 239 240 236 230 227 224 222 220 210 207
174 176 174 176 177 174 179 183 188 190 199 205 211 209 212 216 218 232 227 215 217 223 230 224 239 250 269 176 214 242 252 269 248 234 241 239 242 232 225 221 221 213 209
177 175 172 176 177 179 185 190 189 195 195 205 210 205 211 211 179 177 162 152 199 203 224 228 261 245 247 179 217 219 236 285 260 288 273 250 246 238 227 226 217 224 216
170 177 170 177 182 184 185 194 185 198 195 209 206 201 197 180 174 158 139 146 150 6 327 284 283 293 105 140 170 214 230 293 270 261 277 14 258 244 247 238 227 209 238
170 168 173 171 174 181 182 187 169 170 196 199 192 185 191 174 172 164 153 189 278 281 317 303 283 296 23 142 192 256 239 250 194 243 280 273 277 259 247 250 251 217 210
167 170 174 171 172 171 175 174 172 159 205 181 190 184 179 178 178 179 168 213 257 280 311 283 281 308 281 221 199 281 286 291 270 278 293 310 303 287 271 254 246 245 197
167 170 174 171 178 169 173 177 195 197 149 182 185 177 185 188 186 189 197 217 229 241 267 253 285 318 349 189 145 318 297 277 296 295 297 299 294 295 289 265 246 231 222
171 173 173 178 175 177 177 183 180 175 176 186 190 186 188 189 193 191 199 212 227 231 255 244 262 323 319 43 353 35 357 336 318 300 293 286 290 288 298 286 231 222 206
178 174 174 179 178 178 179 177 168 163 128 160 189 188 199 198 195 204 202 207 217 223 235 243 243 231 250 292 25 107 5 339 331 334 330 329 287 280 291 167 200 161 191
181 179 174 177 176 181 179 182 183 188 202 211 190 194 199 203 203 200 204 206 210 216 228 267 234 247 216 274 0 17 225 187 349 339 335 343 350 286 253 128 173 173 176
173 179 178 175 178 181 181 184 191 192 199 215 207 196 203 204 209 205 206 206 211 216 223 235 244 220 215 234 217 235 268 269 175 192 305 335 351 6 224 200 194 167 179
176 178 180 179 181 179 182 187 192 199 211 219 210 207 203 208 205 206 208 209 212 216 220 223 228 228 230 231 224 243 242 265 298 255 277 321 332 336 360 232 233 211 190